This is the latest recevied weather packets stored in our database for station/object OE3BIA-11. If no packets are shown the sender has not sent any weather packets the latest 1 day(s).
| Time | Temp. | Humidity | Pressure | Rain* | Wind** | Luminosity | Snow |
|---|---|---|---|---|---|---|---|
| 1777977021 | 23.33° C | 4% | - | - | 2.24 m/s, 90° | - | - |
| 1777976718 | 23.33° C | 4% | - | - | 2.24 m/s, 90° | - | - |
| 1777976110 | 23.33° C | 4% | - | - | 1.79 m/s, 90° | - | - |
| 1777975807 | 23.33° C | 4% | - | - | 2.24 m/s, 90° | - | - |
| 1777975504 | 23.33° C | 4% | - | - | 1.34 m/s, 90° | - | - |
| 1777975202 | 22.78° C | 4% | - | - | 1.79 m/s, 90° | - | - |
| 1777974594 | 22.78° C | 4% | - | - | 2.24 m/s, 90° | - | - |
| 1777974291 | 22.78° C | 4% | - | - | 2.24 m/s, 90° | - | - |
| 1777973988 | 23.33° C | 4% | - | - | 1.79 m/s, 90° | - | - |
| 1777973685 | 22.78° C | 4% | - | - | 2.68 m/s, 90° | - | - |
| 1777973383 | 23.33° C | 4% | - | - | 2.24 m/s, 90° | - | - |
| 1777973080 | 22.78° C | 4% | - | - | 2.68 m/s, 90° | - | - |
| 1777972777 | 23.33° C | 4% | - | - | 2.24 m/s, 90° | - | - |
| 1777972474 | 23.89° C | 4% | - | - | 1.34 m/s, 90° | - | - |
| 1777972172 | 23.33° C | 3% | - | - | 1.79 m/s, 90° | - | - |
| 1777971869 | 22.78° C | 4% | - | - | 2.24 m/s, 90° | - | - |
| 1777971566 | 22.22° C | 4% | - | - | 1.79 m/s, 90° | - | - |
| 1777971263 | 22.22° C | 4% | - | - | 1.79 m/s, 90° | - | - |
| 1777970960 | 22.78° C | 4% | - | - | 1.79 m/s, 90° | - | - |
| 1777970658 | 21.67° C | 4% | - | - | 1.79 m/s, 90° | - | - |
| 1777970355 | 20° C | 5% | - | - | 1.34 m/s, 90° | - | - |
| 1777970052 | 19.44° C | 5% | - | - | 1.79 m/s, 90° | - | - |
| 1777969749 | 19.44° C | 5% | - | - | 1.34 m/s, 90° | - | - |
| 1777969446 | 18.89° C | 5% | - | - | 1.79 m/s, 90° | - | - |
| 1777969144 | 19.44° C | 4% | - | - | 1.79 m/s, 90° | - | - |
* Rain since midnight (hover to see other rain measurements)
** Current wind speed in m/s (hover to see current wind gust speed)